Weather in Erlino

Russia / Ryazan Oblast     53°54′38″N   39°43′58″E
temp.,
°C
wind,
m/s
gust,
m/s
humid.,
%
clouds,
%
prec.,
mm/h
press.,
hPa
HPBL,
m
28 september, tue
tue2800:00+8ne6991100 0.6 1021710
03:00+6ne5789100 0.7 1023857
06:00+6ne5890100 0.1 1024763
09:00+6ne5988100 0.1 1026811
12:00+7ne6880100 0.1 1028923
15:00+6ene5775100 0.2 1029890
18:00+6ne4876100 0.0 1031523
21:00+5nne357920 0.0 103295
29 september, wed
wed2900:00+3nne35875 0.0 103395
03:00+2nne34865 0.0 103473
06:00+1n35885 0.0 103488
09:00+5nne467216 0.0 1035324
12:00+10nne34545 0.0 1034914
15:00+11n44475 0.0 10331191
18:00+8n336385 0.0 103331
21:00+6n237288 0.0 103334
30 september, thu
thu3000:00+5n228163 0.0 103422
03:00+4n22885 0.0 103425
06:00+5n228684 0.0 103442
09:00+8ne34705 0.0 1035288
12:00+12ne34555 0.0 10341144
15:00+13ne225025 0.0 10341414
18:00+9nne11635 0.0 103410
21:00+8nnw116990 0.0 103410
1 october, fri
fri100:00+7nw22745 0.0 103517
03:00+6nw228020 0.0 103621
06:00+6nw338726 0.0 103642
09:00+9nw237332 0.0 1036240
12:00+13nw235852 0.0 1036774
15:00+14wnw235317 0.0 10351027
18:00+11wnw226823 0.0 103419
21:00+9wnw22736 0.0 103521
2 october, sat
sat200:00+8wnw22767 0.0 103520
03:00+7wnw227913 0.0 103513
06:00+6nw228214 0.0 103510
09:00+10nw126751 0.0 1035194
12:00+14nw225444 0.0 1034686
15:00+15wnw12505 0.0 1033914
18:00+11wnw11645 0.0 103310
21:00+10wsw11745 0.0 103411